Погода Аул Турара Рыскулова

Погода Аул Турара Рыскулова : погода сейчас, прогноз погоды и архив. Всё, что Вы хотите узнать о погоде Аул Турара Рыскулова!

Поиск расширенной информации на нашем сайте:

Другие новости

Новости СМИ2

Главная страница сайта

Новости сайта

03.07.2017

Напоминаем, что на нашем специализированном сайте Метеоцентр.Азия вы можете получить высокодетализированные автоматические прогнозы погоды по пунктам России, СНГ и мира в авиационном формате (включающие направление и скорость ветра, видимость, явления погоды, количество и форму облачности, нижнюю и верхнюю границу облачности).


Погода Аул Турара Рыскулова - сегодня

Время (UTC), дата Ветер
(°,м/с) 
Видим.   Явления Облачность Т
(°С)
Тd
(°С)
f(%) Тe
(°С)
Pmin
(гПа)
dP
(гПа)
Po
(мм)
O2
(г/м3)
Тmin Tmax R s Состояние
почвы
18 18.01.18 090 (В) 10 км    3/0 средняя 
[Ac lent]
-2.3 -9.1 60 -3  1025.2  695  283    +4       
21 18.01.18 100 (В) 10 км    10/0 средняя, верхняя 
[Ac trans|Ci sp]
+0.2 -7.4 57 -1  1023.4  -0.7  695  280           
00 19.01.18 100 (В) 10 км    10/0 средняя, верхняя 
[Ac trans|Ci sp]
+0.9 -6.7 57 1022.8  -0.3  695  279           
03 19.01.18 080 (В) 10 км    10/0 средняя, верхняя 
[Ac trans|Ci sp]
-0.2 -7 60 -1  1024  0.7  695  281        13  равномерный
мокрый или
старый снег
100% 
06 19.01.18 120 (ЮВ) 20000 м    3/0 верхняя 
[Ci sp]
+4.1 -6.4 46 +4  1023.5  0.9  696  277  -3.4         
09 19.01.18 100 (В) 20000 м    10/0 средняя, верхняя 
[Ac lent|Ci sp]
+6.9 -4.6 44 +7  1022.7  0.2  696  274           
12 19.01.18 110 (В) 10 км    10/0 средняя, верхняя 
[Ac lent|Ci sp]
+4.5 -5.2 49 +4  1023.7  0.2  696  276           
15 19.01.18 090 (В) 20000 м    3/0 верхняя 
[Ci sp]
+2.8 -5.7 54 +2  1025.2  0.8  697  278    +9.5       
18 19.01.18 080 (В) 20000 м    ясно 
+3.8 -5.8 49 +3  1024.3  -0.5  696  277    +9.5       
21 19.01.18 090 (В) 20000 м    ясно 
+3.5 -6.7 47 +3  1024.7  0.2  696  278           
00 20.01.18 110 (В) 20000 м    ясно 
+2.4 -8 46 +2  1024.5  -0.5  696  279           
03 20.01.18 100 (В) 20000 м    ясно 
+4.1 -9 38 +3  1023.6  -0.3  696  277        12  равномерный
мокрый или
старый снег
100% 
06 20.01.18 110 (В) 20000 м    ясно 
+8.8 -7.1 32 +9  1021.5  -0.3  696  272  +1.4         
09 20.01.18 110 (В) 20000 м    ясно 
+10 -1.9 43 +10  1020.2  -0.9  695  270           
12 20.01.18 100 (В) 20000 м    ясно 
+7.4 -4.1 44 +7  1020.9  -0.1  695  273           
15 20.01.18 100 (В) 20000 м    ясно 
+4.3 -4.7 52 +4  1021.4  -0.6  694  276    +12.5       
18 20.01.18 100 (В) 20000 м    ясно 
+3.9 -7.4 43 +2  1019.6  -1.7  693  276    +12.5       
21 20.01.18 120 (ЮВ) 20000 м    ясно 
+3.5 -7.6 44 +2  1018.7  -1  692  276           
00 21.01.18 080 (В) 20000 м    ясно 
+1.6 -7.5 51 +1  1019.2  -0.2  692  278           
03 21.01.18 тихо ()   20000 м    3/0 верхняя 
[Ci fib]
+1 -7.5 53 +1  1019  -0.4  692  278        мокрый или
старый снег
50-90% 
06 21.01.18 120 (ЮВ) 20000 м    3/0 верхняя 
[Ci fib]
+8.8 -6.4 33 +8  1016.3  0.1  692  271  +0.7         
09 21.01.18 140 (ЮВ) 20000 м    3/0 верхняя 
[Ci fib]
+10.4 -3.3 38 +11  1013.9  -1.6  691  268           
12 21.01.18 120 (ЮВ) 20000 м    ясно 
+6.9 -6.4 38 +7  1015  -0.2  691  272           
15 21.01.18 100 (В) 20000 м    ясно 
+4.1 -7.5 43 +4  1016.4  0.4  691  275    +11       
18 21.01.18 100 (В) 20000 м    ясно 
+2.2 -6.6 52 +2  1017.6  0.2  691  277    +11       
Время (UTC), дата Ветер
(°,м/с) 
Видим.   Явления Облачность Т
(°С)
Тd
(°С)
f(%) Тe
(°С)
Pmin
(гПа)
dP
(гПа)
Po
(мм)
O2
(г/м3)
Тmin Tmax R s Состояние
почвы

Для получения пояснительной информации подведите курсор к названию столбца.

ПОГОДА Аул Турара Рыскулова - архив

Всё, что Вы хотите узнать о погоде Аул Турара Рыскулова - удобно и подробно!

Выберите нужную дату (начиная с 1 января 2015* года) и нажмите кнопку "Найти".
Будут отображены архивные сводки погоды по пункту Аул Турара Рыскулова, начиная с указанной даты.


Отображать данные в формате CSV (для использования в таблицах Excel)


Внимание! Наш архив погоды предназначен исключительно для личного некоммерческого использования в познавательных целях. Если Вам необходимы официальные справки о состоянии погоды (для производственных, юридических, коммерческих и т.п. целей), обращайтесь в органы Росгидромета.

*Примечание: данная дата относится к архиву по метеостанциям СССР (Россия, СНГ, Балтия).
Архив по метеостанциям Зарубежной Европы и Азии (кроме Китая) хранится 10 дней, по другим регионам земного шара (Китай, Африка, Америка, Австралия, Океания) - 1 день.

Аул Турара Рыскулова - район местоположения метеостанции


Название, широта, долгота, высота метеостанции:
Аул Турара Рыскулова (Тюлькубас) 42.5°ш. 70.3°д. 808 м над ур. моря [Казахстан]

Дополнительная информация

В oтличие oт бoльшинства пoгoдных сайтoв мы публикуем пoдрoбную метеoинфoрмацию в детальнoм прoфессиoнальнoм фoрмате.

Характеристики температуры и влажнoсти вoздуха измеряются на высoте 2 м в тени вдали oт зданий и деревьев.
Скoрoсть ветра измеряется на высoте 10 м (на урoвне рoста челoвека скoрoсть ветра ниже в 1.5-2 раза). Если метеoстанция нахoдится в гoрoде или в лесу, тo скoрoсть ветра занижена на 2-4 м/с пo сравнению с oткрытым местoм. Скoрoсть ветра над акватoриями крупных рек и oзёр, а также на вершинах хoлмoв на 2-5 м/с выше, чем в oбычных услoвиях.
Атмoсфернoе давление в разных тoчках местнoсти мoжет значительнo oтличаться oт давления на метеoстанции, в зависимoсти oт услoвий рельефа (при пoдъёме на 10 м давление пoнижается примернo на 1 мм рт.ст.).